sat.trackr.live / text

‹ back to catalog

STARLINK-4375

NORAD 53192 · 2022-084D

PAYLOAD ACTIVE UNKNOWN

§ Identity

Operator
Country
US
Launch date
2022-07-22
Launch site
AFWTR
Launch vehicle
Mass (kg)
RCS (m²)

Purposes: comms

External: N2YO · Heavens-Above · Gunter

§ Orbital elements

Epoch: 2026-05-25T03:52:45.575040Z

Period
95.64 min
Inclination
97.4464°
Eccentricity
0.0002084
Mean motion
15.05633912 rev/d
Perigee alt
548.1 km
Apogee alt
551.0 km
Semi-major
6,927.7 km
B*
-2.3318e-5
RAAN
206.2150°
Arg perigee
135.2151°
Mean anomaly
224.9245°
Rev number
21,155

§ Raw data

STARLINK-43751 53192U 22084D   26145.16163860 -.00000395  00000+0 -23318-4 0  99942 53192  97.4464 206.2150 0002084 135.2151 224.9245 15.05633912211551

JSON: /api/v1/satellites/53192 · /tle

For live sub-satellite position, see the globe view (requires WebGL).

§ Visibility from observer

Set your observer location to see the next 7 days of passes ≥ 10°. The values pass through the URL so the page stays shareable.

No JS? Fill the form by hand. The geolocation button needs JavaScript.